Theta_e
286 283 279 279 281 281 280 281 282 281 282 281 280 279 279 278 279 279 279 279 280 282 279 278 275 276 277 278 278 279 280 279 278 278 279 279 280 280 280 280 280 280 280 282 282 282 282 282 282 282 281 281 281 281 280 280 280 280 279 279 278 279 279 278 278 278 278 278 279 279 279 279 280 281 282 281 281 281 281 282 282 282 282 282 282 283
285 281 279 280 281 281 280 280 280 280 279 282 279 278 278 276 278 280 280 280 279 281 278 276 276 276 277 278 278 279 279 278 278 278 279 279 280 280 280 280 280 280 282 282 281 281 281 281 281 280 280 280 278 279 279 279 278 278 279 278 278 278 277 277 277 277 278 278 278 277 278 278 278 279 278 278 279 279 280 280 280 279 280 280 280 281
278 280 280 281 281 278 278 279 279 281 280 277 279 276 275 278 278 278 280 280 280 281 278 276 276 276 276 278 279 278 278 279 279 279 279 280 280 280 280 280 280 280 280 280 280 280 280 280 279 279 279 279 279 278 278 278 278 277 277 277 277 277 276 276 277 277 276 278 278 277 277 277 277 279 279 278 278 278 277 277 277 277 277 278 278 279
280 277 280 280 279 281 280 278 279 279 279 279 278 276 277 277 277 276 279 280 282 279 279 277 276 276 276 278 278 279 278 279 280 280 279 281 280 279 280 280 280 279 279 278 278 278 278 278 278 278 278 278 278 277 277 277 277 276 276 276 276 276 276 275 276 277 277 277 277 277 277 277 277 276 278 276 276 276 276 275 276 276 277 277 277 278
281 282 279 278 279 282 281 279 281 279 279 276 278 277 276 277 278 278 277 278 278 279 278 277 276 275 275 275 277 279 279 279 279 279 279 279 280 280 280 280 280 279 278 277 277 277 277 277 277 277 277 277 277 277 276 276 276 276 275 276 276 275 275 275 275 275 276 276 276 276 276 277 275 275 275 274 273 274 274 274 274 275 276 276 277 277
281 281 279 281 278 278 281 279 279 280 276 275 276 279 279 279 278 277 277 279 276 275 278 278 271 270 273 275 275 277 278 277 278 278 278 278 279 279 279 278 279 279 279 277 277 276 276 276 276 276 276 276 276 276 276 276 276 276 275 275 275 275 274 274 275 275 276 275 274 273 272 271 271 270 271 270 270 271 272 272 274 275 275 276 276 277
282 281 280 282 279 279 278 279 279 280 275 275 277 278 277 277 278 277 278 278 270 271 277 278 274 269 273 274 275 276 276 276 277 277 277 278 278 278 278 278 278 278 278 278 277 277 276 276 275 275 275 275 275 275 276 276 275 276 275 274 274 274 274 274 275 275 275 274 273 272 271 270 270 269 271 272 272 272 273 274 273 274 274 275 275 276
280 281 281 278 279 278 278 279 280 277 275 276 278 276 276 278 278 278 278 278 276 276 277 277 277 270 269 274 275 276 275 275 276 276 276 277 277 277 278 278 278 278 278 277 277 276 276 276 275 274 275 275 275 275 275 275 275 275 274 273 273 273 274 274 274 274 275 273 272 270 270 270 270 270 270 271 272 273 273 272 272 272 272 273 274 275
280 281 280 280 279 278 279 280 280 279 279 278 278 277 278 278 278 277 276 275 274 274 272 276 277 272 268 272 275 276 274 274 274 275 276 277 277 277 277 278 277 278 278 277 276 276 276 275 275 275 275 275 275 275 274 274 275 275 273 273 273 272 273 273 274 274 273 272 271 270 270 269 270 271 271 272 272 272 271 270 270 270 271 272 273 273
282 281 282 282 280 279 280 279 277 279 279 278 278 278 275 275 275 276 273 274 270 270 269 272 276 270 269 272 274 274 274 273 274 275 276 276 277 277 277 278 278 278 277 277 277 277 276 276 275 276 275 275 275 274 274 274 275 274 273 272 272 271 272 273 273 273 271 271 270 269 269 269 269 270 271 270 269 269 269 268 268 269 270 271 271 271
280 282 284 282 280 281 279 279 277 278 279 279 277 277 277 273 272 272 270 266 266 263 268 272 271 273 267 271 273 273 274 274 274 275 276 277 277 278 278 278 278 277 277 277 277 277 277 277 276 276 275 274 274 274 273 273 274 273 272 271 271 271 271 272 272 272 270 270 269 269 269 269 269 269 269 268 267 268 267 267 267 268 269 269 269 270
278 281 281 280 283 280 279 279 278 278 278 278 275 275 276 274 271 271 265 266 263 262 267 270 270 272 266 268 273 275 273 275 275 274 276 276 277 278 278 278 278 278 278 278 278 277 276 276 275 275 274 274 273 273 272 272 273 273 271 271 270 271 271 271 272 271 269 269 269 269 269 268 269 269 267 267 266 266 266 266 266 268 268 268 268 269
277 278 279 280 284 280 278 278 278 276 277 279 277 275 270 266 265 263 260 266 262 263 272 270 272 271 271 270 273 274 275 275 275 277 276 277 277 278 278 279 279 279 279 278 277 277 276 275 274 273 273 273 272 271 271 271 272 272 271 270 270 270 270 269 270 269 269 268 268 268 268 268 269 268 267 266 266 266 266 266 266 266 266 267 267 267
275 275 279 279 280 281 279 277 276 274 276 277 274 267 264 263 258 260 262 259 260 269 269 270 273 270 271 272 273 274 275 276 277 277 277 278 278 278 279 279 279 279 279 278 277 276 274 274 274 273 273 273 272 271 271 271 272 271 271 270 269 269 269 269 268 268 268 268 268 268 268 268 269 267 267 266 266 266 266 266 266 266 266 266 266 266
267 270 276 279 278 279 278 278 278 277 276 275 275 275 268 266 264 263 259 263 267 267 269 269 268 261 266 268 274 275 276 277 277 278 279 279 279 280 280 280 279 279 278 278 276 275 274 273 273 273 272 272 271 271 270 270 271 271 269 269 269 268 268 268 267 267 267 267 267 268 268 269 268 267 266 266 266 265 265 265 265 265 266 266 266 266
274 273 277 279 280 278 279 279 277 277 274 276 275 274 269 267 268 266 264 263 261 262 264 262 264 267 269 275 276 275 277 277 278 278 278 278 279 280 280 280 279 278 278 277 276 274 274 273 273 272 272 271 271 270 270 269 270 270 269 269 269 268 268 267 267 266 266 266 267 267 267 268 268 267 266 266 266 265 265 265 265 265 265 265 265 265
271 270 276 278 277 278 278 278 278 279 270 275 275 267 273 275 274 264 266 267 266 261 263 261 269 272 274 275 275 277 277 277 277 277 277 277 278 279 279 279 279 278 278 277 276 274 273 273 272 272 271 270 270 270 269 269 270 269 268 268 268 268 267 267 267 266 266 266 266 266 267 267 267 266 265 264 264 264 264 264 264 264 264 264 264 264
268 274 277 274 277 278 277 277 277 276 278 274 266 274 277 276 274 268 263 261 256 259 263 264 267 265 267 262 275 275 275 276 276 275 275 275 276 276 278 279 279 278 277 276 275 274 273 272 272 271 271 270 269 269 269 268 269 268 268 268 268 267 266 266 266 266 265 265 265 265 266 266 266 265 265 264 263 264 263 263 263 263 263 263 263 263
274 267 273 275 275 277 277 278 276 278 277 278 277 277 273 264 266 268 262 260 263 264 263 266 262 263 265 267 272 273 274 275 275 275 274 274 274 275 276 278 279 278 278 275 274 273 273 272 271 270 270 269 269 269 269 268 268 268 268 268 268 267 267 266 266 266 265 265 265 265 265 265 266 265 264 264 263 263 262 262 262 262 262 263 263 263
274 267 271 274 276 278 276 275 268 274 278 274 276 275 274 272 264 263 266 264 267 264 265 267 265 265 269 269 273 274 275 275 275 274 274 274 274 275 275 277 278 278 277 275 273 273 272 271 271 270 269 268 268 268 268 268 268 267 267 267 267 267 267 266 266 265 264 264 264 264 264 265 266 265 264 263 262 262 262 262 262 262 261 262 262 262
272 273 265 273 277 275 272 274 273 273 272 274 271 268 270 265 273 271 266 266 269 265 265 263 264 266 271 275 274 273 273 274 274 273 275 274 274 275 275 276 278 276 275 273 272 272 271 270 270 269 269 268 268 268 268 268 267 267 267 266 266 265 265 265 265 264 263 264 263 263 263 264 265 264 263 262 262 262 261 261 262 261 261 261 261 261
266 270 267 272 273 272 274 276 276 275 276 275 271 268 270 268 269 268 267 265 262 267 266 265 265 266 272 276 275 274 274 274 275 274 274 275 275 275 275 276 277 275 273 272 272 271 271 270 269 269 269 268 267 267 266 267 267 266 265 265 264 265 264 264 264 264 263 263 263 263 263 263 264 263 263 262 261 261 261 261 261 261 261 260 261 261
274 270 270 267 272 274 276 275 275 275 275 275 275 272 270 266 267 267 264 269 267 268 266 268 265 267 273 276 276 275 275 275 275 275 273 274 275 276 276 276 275 274 272 271 271 271 270 269 269 268 268 267 266 266 266 265 265 265 265 264 264 264 264 264 264 263 263 262 262 262 262 263 262 262 262 261 261 260 260 260 260 260 260 260 260 260
281 263 263 270 272 271 274 274 274 273 276 272 271 272 271 268 267 268 268 269 267 268 267 268 266 268 274 276 276 275 276 275 275 275 274 274 274 275 275 275 274 272 271 271 271 271 270 269 269 268 267 266 266 265 265 265 265 265 264 264 263 263 263 263 263 263 262 262 261 262 262 262 262 261 261 260 260 260 260 260 260 260 259 260 260 259
267 270 269 262 261 263 268 269 272 273 275 271 268 272 271 271 270 266 266 266 267 269 268 267 263 267 274 274 275 275 275 275 275 276 276 273 274 274 275 275 273 272 271 270 270 269 269 269 268 267 266 266 265 264 264 264 264 264 264 263 263 263 263 263 263 262 262 261 261 261 261 261 261 260 260 260 260 259 259 259 259 259 259 259 259 259
269 270 266 261 261 261 263 264 266 269 270 271 271 270 270 270 270 270 266 268 264 267 268 267 265 270 273 274 274 275 275 275 276 275 276 275 274 274 274 275 273 271 270 269 269 269 268 268 267 267 266 265 264 264 263 263 263 263 263 263 263 262 262 262 262 261 261 261 260 260 260 260 260 260 259 259 259 259 259 259 259 259 259 259 258 258
264 268 267 264 264 265 267 269 273 274 271 266 267 267 268 269 269 269 269 266 263 266 265 268 267 269 271 272 273 274 274 274 274 274 274 274 274 274 274 274 272 271 269 268 268 269 268 267 266 266 265 264 264 263 263 262 262 263 262 262 262 262 262 261 261 261 260 260 260 259 259 259 259 259 259 259 259 259 258 258 258 258 258 258 258 257
260 263 268 269 269 270 272 272 274 273 269 269 266 268 269 267 266 267 267 264 268 263 262 265 268 266 269 272 273 272 273 273 274 274 275 275 274 273 273 273 272 269 269 268 268 267 266 266 265 265 264 264 263 263 262 262 262 262 262 261 262 262 261 261 260 260 260 259 259 259 259 259 259 259 259 259 258 258 258 258 258 258 258 257 257 257
263 264 266 265 264 268 270 271 272 270 269 269 267 268 267 267 266 264 265 266 265 263 264 268 269 268 270 272 272 272 273 273 274 274 275 275 274 273 272 272 270 268 267 267 267 266 265 265 264 264 263 263 262 262 261 261 262 262 262 262 262 261 261 261 260 259 259 259 258 258 259 259 259 259 258 258 258 257 257 257 257 257 257 257 256 256
266 263 264 262 267 269 270 270 270 270 268 267 264 269 270 268 267 267 267 267 267 265 268 269 268 268 271 271 272 273 275 275 275 275 275 274 273 272 271 270 268 267 266 266 265 265 264 264 264 263 263 262 262 261 261 261 261 261 261 261 261 261 260 260 259 259 258 258 258 258 258 258 258 258 258 257 257 257 257 256 256 256 255 255 255 255
272 267 271 262 264 265 268 266 268 269 266 266 268 269 269 268 268 267 266 267 266 265 267 267 266 266 270 272 273 275 276 276 274 273 273 273 273 271 270 269 267 266 266 265 264 264 264 263 263 263 262 262 261 261 260 260 261 261 260 261 260 260 260 260 259 258 258 257 258 258 258 258 257 257 256 256 256 256 256 256 255 255 254 254 254 254
269 267 258 255 264 264 267 268 270 267 267 266 267 268 268 267 264 267 264 267 265 264 266 266 264 267 271 273 274 274 274 272 271 271 271 272 272 270 269 267 266 265 265 264 263 263 263 262 262 262 261 261 261 260 260 260 260 260 260 260 260 260 260 259 258 258 257 257 258 257 257 257 256 256 256 255 255 255 255 255 254 254 254 253 254 254
261 262 262 259 262 260 268 268 269 266 266 262 262 266 269 268 268 268 269 269 270 270 264 263 266 270 272 273 272 272 272 271 271 271 271 271 271 270 268 266 265 265 264 263 263 263 262 262 262 262 262 261 261 260 260 260 260 259 260 259 259 259 259 258 258 257 257 257 257 257 256 256 256 255 255 254 254 254 254 254 253 253 253 253 253 254
260 263 263 262 263 261 267 267 266 259 256 260 267 272 271 269 269 266 268 269 271 269 268 270 271 273 273 273 272 271 270 270 270 272 272 271 270 269 268 266 265 265 263 263 263 262 262 263 262 262 262 261 261 261 261 260 260 260 260 259 259 258 258 257 257 257 256 256 256 256 256 255 255 254 254 254 254 254 253 253 252 253 253 253 253 253
262 261 265 258 262 263 262 266 261 255 258 264 272 273 272 271 270 269 270 271 271 271 269 269 271 272 273 273 272 272 272 272 273 272 271 272 270 268 266 265 265 265 263 263 263 263 262 262 261 261 260 260 260 260 259 259 259 259 259 259 258 258 257 257 256 256 256 255 255 255 255 255 254 254 254 254 253 253 252 252 252 252 253 253 253 252
265 265 259 263 257 257 259 257 256 257 264 270 270 272 273 272 270 268 269 271 271 271 270 269 272 273 273 273 273 274 273 272 272 272 272 269 268 266 265 265 266 264 263 264 263 262 262 261 260 260 260 261 259 259 259 259 259 258 258 258 257 257 256 256 255 255 255 255 255 255 255 254 253 253 253 253 252 252 252 252 252 251 252 252 253 253
267 259 260 265 259 261 259 257 263 267 266 267 268 271 269 268 268 267 263 269 271 272 271 271 272 272 272 273 273 273 272 271 269 270 268 267 267 267 267 266 265 264 264 264 263 262 262 261 261 261 261 259 259 258 258 259 258 258 257 257 256 256 256 255 254 254 254 254 254 254 254 254 253 252 252 252 252 251 251 251 251 251 252 252 252 252
269 268 265 264 263 262 261 258 259 256 254 258 267 269 272 272 272 272 269 267 271 273 273 272 270 272 272 272 272 271 271 268 265 267 268 268 269 268 267 265 265 264 264 263 263 262 261 261 261 260 260 259 258 259 259 258 258 257 256 256 256 255 255 254 253 254 254 254 254 254 254 253 253 252 252 251 251 251 251 251 251 251 252 252 252 252
265 267 263 262 260 257 259 256 254 253 259 263 267 270 271 273 272 272 266 264 271 270 271 272 271 272 271 271 271 271 267 263 263 267 268 269 269 269 266 266 265 264 263 263 262 260 260 260 260 260 259 258 257 258 258 257 257 256 255 255 255 254 253 253 253 253 254 254 254 254 253 253 252 252 251 251 251 251 250 251 251 251 252 252 252 252
263 260 261 259 255 257 255 255 255 252 259 266 269 270 273 273 271 266 260 262 268 271 271 271 270 271 271 272 271 269 266 262 264 267 271 271 268 266 265 265 264 263 263 262 262 260 260 260 259 258 258 257 258 258 257 257 256 255 255 254 254 253 252 252 253 254 254 254 253 253 253 253 252 252 251 251 250 250 250 251 251 251 252 252 252 252
262 260 258 262 257 259 262 253 253 260 266 269 267 270 272 271 269 258 258 266 269 271 272 272 272 272 273 271 271 267 269 270 270 272 272 269 268 267 266 265 264 263 262 261 260 262 260 259 258 258 258 258 258 258 257 256 255 254 254 253 253 252 252 253 254 254 254 253 253 253 253 252 252 251 251 251 250 251 250 251 251 251 251 251 251 252
260 256 256 255 257 257 251 255 261 262 265 269 271 271 273 268 261 262 269 273 272 273 273 273 272 273 273 272 271 271 271 272 272 272 270 268 267 266 265 264 263 263 263 262 262 261 259 259 258 258 258 258 258 257 256 256 255 254 253 252 251 252 253 254 253 253 253 253 253 252 252 251 251 251 250 250 250 250 250 251 251 251 251 251 251 250
261 262 261 259 258 259 254 253 256 259 262 271 272 270 270 265 269 272 273 274 274 273 273 273 273 273 273 271 271 270 270 271 271 270 270 268 267 265 264 263 262 261 260 260 260 260 259 258 258 257 258 258 257 257 257 255 253 252 252 251 252 253 253 253 253 253 253 252 252 251 251 250 250 250 250 250 250 249 249 250 250 250 250 250 250 250
263 264 257 257 257 260 255 257 257 266 267 271 271 268 270 273 275 274 273 272 274 274 273 273 273 273 272 270 270 270 270 270 270 269 269 268 266 265 264 263 262 260 260 260 260 259 259 258 258 257 258 258 257 257 256 254 252 252 251 252 253 253 253 252 253 253 252 251 250 250 250 250 250 250 249 249 249 249 249 249 249 250 250 250 250 250
268 262 260 266 260 264 263 266 271 271 273 273 274 274 275 275 274 274 274 274 273 274 275 273 272 271 270 270 270 270 268 269 268 268 267 266 265 264 263 262 261 260 259 259 259 259 258 257 257 257 257 257 257 256 255 253 252 251 251 252 253 252 252 252 251 251 250 250 250 249 249 249 249 249 249 249 249 249 249 249 249 249 250 250 250 250
269 270 267 269 266 269 272 274 276 276 275 274 273 275 274 274 274 274 274 274 275 275 274 272 271 270 270 271 269 269 269 268 267 266 266 265 264 264 262 261 260 260 260 259 259 258 258 257 257 256 255 256 256 255 254 253 252 250 251 252 252 252 251 251 250 249 249 249 249 249 249 248 248 248 249 249 249 249 249 249 249 249 249 250 250 250
267 269 270 266 268 267 266 270 272 273 273 273 274 274 275 275 274 274 274 274 275 274 272 271 270 269 269 270 269 268 267 267 266 265 265 264 263 262 261 260 259 259 259 258 259 258 257 256 255 255 254 254 255 255 254 253 252 252 252 251 252 252 251 249 249 249 249 249 249 248 248 248 248 249 249 249 249 249 249 249 249 249 249 249 250 250
268 270 270 270 269 267 270 274 273 273 274 275 274 274 274 274 274 274 274 274 273 272 270 269 269 269 270 269 269 267 267 266 265 264 264 263 262 260 259 259 259 259 259 259 258 258 256 255 255 254 254 254 254 254 253 253 252 252 252 251 252 250 249 248 248 248 248 248 248 248 248 248 249 249 248 248 248 248 248 249 249 249 249 249 250 251
270 271 264 268 268 271 273 275 275 274 274 274 275 274 274 274 273 273 273 272 270 269 268 268 269 269 269 269 269 268 266 266 265 264 263 262 261 260 259 259 258 258 258 258 258 257 256 255 254 254 253 253 254 253 252 252 252 252 252 252 251 249 247 248 248 248 247 248 248 247 248 248 248 248 248 248 248 248 248 248 248 249 250 252 254 254
270 269 269 267 267 268 267 271 271 269 271 273 273 273 274 274 272 272 271 269 269 268 268 267 268 268 269 269 268 267 266 265 264 263 261 261 261 260 260 259 258 258 257 258 257 257 255 255 254 253 253 253 253 253 252 252 252 251 252 251 250 248 247 248 248 247 247 247 247 247 248 248 248 248 248 248 247 247 248 251 253 253 253 253 256 257
272 272 270 266 263 269 275 275 273 274 274 275 275 275 274 273 272 270 270 270 269 269 268 267 266 267 268 268 269 267 265 264 263 262 260 260 260 260 259 258 257 257 257 257 256 256 255 255 254 253 252 253 253 252 252 251 251 251 251 251 250 248 247 246 246 247 247 247 247 248 248 248 247 247 247 247 247 247 247 247 249 255 258 257 256 257
Wind_Speed
1 1 2 6 7 4 4 3 3 0 0 0 1 2 7 6 8 4 5 4 2 1 4 1 5 7 8 9 10 10 8 10 8 9 9 9 9 10 10 10 11 12 11 8 10 11 12 12 11 11 11 12 14 14 14 14 14 13 10 11 13 11 12 12 11 11 10 10 9 8 8 8 7 6 7 7 8 9 9 11 10 11 10 11 10 10
2 2 4 4 3 3 3 1 1 1 1 2 1 3 7 2 9 3 1 3 3 2 2 4 7 6 6 8 9 8 9 10 6 8 9 9 9 9 12 12 12 10 8 11 11 12 12 11 12 11 11 14 16 13 13 14 12 11 12 13 12 12 12 12 11 9 8 8 7 8 7 7 7 7 8 8 8 9 9 11 11 11 11 12 11 11
4 2 3 2 0 4 3 2 1 2 1 2 2 3 2 7 6 7 1 2 1 2 5 2 2 4 5 6 8 9 7 5 6 5 6 10 10 9 9 11 11 11 11 11 11 11 11 13 13 12 12 12 12 12 12 11 13 14 13 13 12 11 11 10 11 10 9 8 9 9 8 8 7 6 7 7 8 9 10 10 11 11 12 13 12 13
6 2 2 0 2 1 1 2 2 2 2 1 2 2 6 3 4 6 2 2 0 1 2 4 4 1 3 3 8 9 7 6 8 10 10 6 9 10 9 9 11 11 11 12 11 11 11 12 12 12 12 10 10 12 12 13 14 12 13 11 11 10 10 10 11 10 9 9 9 7 7 7 7 7 7 7 6 8 10 10 11 11 12 13 13 14
5 2 1 2 1 1 1 1 0 2 6 3 3 3 5 4 4 6 5 4 3 2 2 3 3 1 4 4 6 7 6 10 9 10 11 9 8 8 9 10 8 10 11 11 11 11 11 13 13 12 11 10 12 12 13 13 12 9 11 10 11 9 10 10 11 11 9 8 8 8 7 6 7 7 7 8 8 9 9 9 10 11 11 12 11 11
5 1 1 0 1 3 1 5 2 1 4 6 5 5 4 2 4 5 4 5 5 4 1 5 3 3 4 3 4 4 5 9 6 10 9 8 8 8 10 10 9 10 9 11 11 11 11 11 11 11 12 13 12 12 11 10 10 10 10 10 10 8 9 10 11 11 9 9 9 10 11 11 10 9 9 11 12 11 11 10 10 10 11 12 11 11
1 1 1 0 2 3 3 1 2 1 1 3 3 1 2 2 1 1 3 3 4 1 2 1 3 7 3 2 3 3 6 8 7 9 7 7 7 7 7 7 8 9 10 10 10 9 11 10 12 12 12 11 12 11 8 8 8 9 10 10 9 9 8 9 10 12 9 9 10 11 9 9 8 8 8 8 9 9 9 9 11 10 10 11 12 11
1 2 3 5 4 5 4 6 2 2 3 3 1 2 1 0 2 4 2 3 6 1 4 1 1 4 5 2 4 4 6 7 9 8 7 6 6 7 7 7 7 8 9 9 10 10 10 11 11 12 11 11 10 8 7 8 8 10 12 11 10 9 9 9 10 10 10 10 10 11 10 8 8 8 9 9 9 8 8 9 11 10 10 10 10 10
1 4 4 5 4 4 4 1 4 0 1 3 2 3 4 3 4 3 2 3 2 2 8 4 2 1 4 2 2 1 8 6 7 5 5 5 6 7 8 7 8 8 8 9 9 10 10 11 11 10 10 8 9 10 10 10 9 9 10 10 10 10 9 9 11 10 11 11 11 9 8 8 7 7 7 7 8 9 10 12 11 11 10 9 10 10
1 2 0 1 2 4 2 3 1 2 3 1 0 1 1 2 4 1 2 2 3 2 7 2 3 4 6 3 4 2 3 5 4 6 5 4 5 6 7 8 8 8 8 8 9 9 9 9 9 8 8 10 10 10 10 9 7 8 8 10 11 11 10 10 11 10 12 12 10 9 9 9 8 8 7 8 9 10 11 11 12 10 9 9 10 10
2 3 4 4 1 0 2 2 1 0 2 2 1 4 3 2 3 3 5 2 2 1 6 3 6 2 5 5 7 6 4 4 7 6 4 4 5 6 5 6 6 7 7 7 8 9 9 8 8 8 10 10 10 10 10 9 8 8 9 10 12 11 10 11 10 11 12 10 10 8 10 10 10 11 9 10 10 10 11 12 11 10 10 9 9 9
4 1 2 1 0 1 0 4 2 0 0 2 4 3 7 2 6 2 3 4 1 5 4 5 2 0 4 3 3 3 2 8 5 9 9 6 5 5 5 5 5 6 6 6 7 7 7 8 9 9 10 10 10 10 11 10 8 9 9 11 11 11 12 11 10 11 12 10 10 9 10 10 9 9 8 10 11 12 13 13 11 10 10 10 10 9
6 4 1 3 1 7 4 5 6 4 4 9 5 7 8 7 7 3 5 3 2 3 1 2 0 3 4 1 4 3 5 8 4 5 6 7 6 6 5 5 5 5 6 6 5 6 7 8 8 9 8 9 11 11 11 10 7 7 8 11 11 11 11 12 12 11 12 11 11 10 10 10 7 8 8 10 10 12 11 11 11 11 10 10 10 10
6 2 4 2 2 3 2 8 8 5 7 9 6 3 6 7 4 4 5 2 3 5 4 1 4 3 2 2 5 4 5 6 8 6 5 6 6 6 5 5 5 6 6 6 6 7 7 7 7 7 8 8 8 9 9 9 7 7 8 10 10 10 10 11 11 12 12 11 10 10 9 9 6 7 9 9 10 11 10 9 10 10 10 10 10 11
8 7 7 8 5 4 4 3 1 3 4 3 2 1 1 1 2 6 2 6 9 9 7 4 1 2 1 2 5 3 5 6 5 5 5 6 6 6 6 6 6 6 6 6 6 6 7 7 7 6 6 6 7 8 8 8 7 7 9 9 10 10 11 12 12 11 13 11 11 10 9 8 6 7 8 8 10 11 11 10 10 10 10 10 10 10
1 5 6 2 3 2 5 2 1 4 2 0 1 4 6 2 4 4 4 5 5 7 8 2 1 1 0 3 2 2 5 6 7 8 9 9 7 6 5 4 5 4 4 4 5 6 6 6 6 6 6 6 7 8 8 10 8 8 10 9 9 9 10 11 11 12 12 12 10 12 11 9 7 7 8 9 10 10 10 11 10 11 10 10 11 10
4 3 4 7 4 4 4 2 3 1 6 6 4 2 4 3 4 2 4 1 1 2 6 3 1 2 2 2 4 5 6 6 7 9 10 9 8 6 5 3 3 3 3 4 5 5 5 5 5 5 6 6 8 8 9 10 8 9 9 8 9 9 10 11 10 12 12 12 12 12 11 10 7 8 10 10 13 12 11 10 10 10 11 11 10 10
1 10 5 5 5 1 0 2 1 4 1 1 4 5 5 3 2 2 2 5 3 0 7 3 2 4 1 4 6 4 5 5 6 9 9 9 8 8 6 4 1 1 3 5 6 5 5 4 5 5 5 6 9 8 8 9 8 8 8 9 8 9 11 11 10 12 12 13 12 12 12 11 7 7 9 11 12 11 10 11 10 10 10 11 11 10
2 4 5 0 3 6 2 1 3 1 2 5 2 4 5 5 5 4 2 4 8 8 6 6 0 3 1 3 1 4 4 3 6 7 7 9 8 7 8 6 3 3 4 5 4 4 3 3 4 5 6 6 8 8 6 7 7 8 8 9 8 10 10 10 9 10 10 11 9 9 11 11 6 6 9 11 11 10 11 12 11 12 12 12 11 11
1 1 7 1 2 5 2 6 5 7 6 3 2 6 1 2 2 4 2 1 1 8 6 5 4 4 5 4 7 5 5 6 6 5 5 4 3 4 6 7 4 2 2 4 3 3 3 3 4 5 6 6 8 7 5 6 6 8 8 9 9 9 9 10 9 10 10 10 9 10 11 10 6 7 10 11 11 11 11 12 12 12 12 12 11 12
1 1 2 7 8 4 4 5 3 4 10 9 8 5 6 2 4 2 2 1 4 5 4 3 6 4 5 7 6 8 7 6 4 3 1 0 2 2 5 6 3 0 2 3 2 1 2 3 4 4 4 3 5 5 5 6 6 7 7 9 10 10 10 9 9 10 9 9 9 10 11 11 8 10 11 11 11 11 11 11 11 11 11 12 12 12
2 3 1 6 8 4 2 1 0 0 3 4 4 4 4 6 8 7 8 3 3 2 6 6 5 4 4 3 3 3 2 2 1 1 1 3 3 3 4 4 3 2 3 2 1 1 1 2 3 1 3 2 5 6 7 7 6 7 7 8 9 8 9 9 10 10 10 9 9 10 11 11 10 10 10 12 12 11 11 11 11 12 12 12 12 11
1 1 1 5 3 5 4 2 1 2 2 7 9 6 2 0 1 2 5 4 4 1 1 4 3 1 3 2 2 2 3 3 3 2 1 2 3 5 6 3 2 3 3 2 0 1 1 0 2 2 4 4 5 6 7 7 7 7 7 9 9 9 10 10 10 10 9 9 10 11 11 11 10 11 12 12 11 11 12 12 12 12 13 13 13 12
4 2 4 3 7 3 2 1 1 1 7 4 4 5 6 6 1 4 3 1 1 4 6 6 3 2 2 2 3 3 4 4 3 3 3 3 1 6 7 4 5 5 3 2 1 2 1 1 3 3 5 6 6 8 8 8 9 8 7 8 9 9 10 10 10 10 9 9 10 11 11 10 11 12 12 12 11 13 13 13 12 12 13 14 13 13
2 2 3 4 4 4 3 4 2 1 6 3 2 5 4 2 1 3 1 3 0 3 9 5 4 5 1 4 3 4 6 6 5 4 3 3 4 5 7 4 5 5 3 1 2 1 1 2 4 5 6 6 7 7 7 8 9 8 8 8 9 9 10 9 10 10 10 10 11 11 10 11 11 11 12 12 12 13 14 13 14 13 15 15 14 15
3 1 4 5 5 8 11 12 13 13 9 0 2 6 4 6 7 5 3 4 3 7 9 2 6 7 4 5 5 7 6 6 5 4 4 4 4 7 8 7 5 3 2 2 3 1 3 4 5 5 5 5 4 6 6 7 8 8 8 8 8 9 9 9 9 9 10 10 10 10 11 11 11 12 13 13 13 14 14 16 14 15 14 14 16 15
2 2 4 3 1 2 5 6 4 2 3 4 8 3 4 4 2 1 2 2 3 6 6 4 4 11 13 3 6 6 4 5 5 4 6 6 4 6 7 5 3 3 1 1 3 3 2 4 4 4 5 4 4 5 6 7 8 8 8 9 9 8 9 9 9 9 9 10 10 10 10 11 12 12 12 14 14 14 15 14 15 15 15 14 14 15
2 3 2 1 2 4 4 6 6 1 1 1 1 4 3 3 4 5 6 1 3 3 6 2 5 8 12 13 5 3 3 4 6 7 9 9 7 6 8 6 4 2 1 1 2 5 5 5 4 4 5 5 5 5 6 7 8 8 9 9 9 9 9 8 9 10 10 10 10 10 11 11 12 12 14 14 14 15 14 14 15 14 14 14 15 15
2 2 4 4 8 5 6 7 5 0 2 2 1 1 3 2 4 7 2 3 2 1 9 12 11 11 14 11 3 2 2 6 8 10 10 8 7 8 10 10 6 4 2 3 4 4 5 5 6 7 6 5 5 6 7 8 8 8 8 8 9 8 8 9 9 9 9 10 10 10 11 12 11 13 14 15 15 14 14 15 14 14 14 14 14 13
2 0 2 3 4 5 5 1 1 2 3 1 1 1 1 0 1 1 2 3 5 6 11 13 13 14 13 6 1 4 4 7 8 8 8 9 11 10 10 10 6 6 5 5 4 4 5 6 7 7 6 5 5 6 7 7 8 8 9 9 8 8 9 8 8 9 9 9 10 10 11 12 13 14 14 14 14 14 15 14 14 14 14 14 14 14
4 3 1 0 3 4 2 4 1 3 6 3 1 3 2 1 3 5 2 4 5 6 6 8 9 15 5 4 4 5 6 6 9 11 12 12 12 10 10 9 7 7 6 5 4 5 5 6 7 7 6 6 5 6 7 7 8 8 8 8 8 9 9 8 9 9 9 10 10 11 12 12 12 13 14 14 14 14 14 15 14 14 13 13 13 14
6 3 2 2 3 5 2 4 6 2 3 2 3 1 3 3 3 3 2 3 2 9 12 10 10 10 2 2 4 5 6 9 11 12 13 11 11 10 10 9 7 7 6 6 5 5 5 7 7 7 6 5 5 6 7 7 8 8 8 8 9 9 9 9 9 9 10 10 12 11 13 12 13 14 14 13 14 14 13 13 13 13 13 12 14 14
1 1 3 2 3 3 3 4 8 2 1 3 6 4 3 3 3 4 5 6 8 7 6 8 13 4 4 5 8 7 8 11 11 9 12 14 12 10 10 8 6 6 6 6 6 5 5 8 8 8 6 4 5 5 6 8 8 8 9 10 9 9 9 10 9 10 10 11 11 12 12 12 13 13 13 11 12 12 12 12 13 12 11 12 12 12
0 2 0 1 1 7 8 10 4 2 3 3 2 6 5 3 5 5 9 9 10 4 8 7 10 7 8 8 11 12 11 12 11 11 9 12 13 11 7 4 5 6 6 5 5 5 6 7 6 7 5 5 5 5 6 7 8 8 8 8 9 9 9 9 9 9 10 10 10 11 11 12 13 12 11 12 12 11 11 11 12 10 10 11 12 13
1 1 0 1 1 6 6 9 6 3 3 2 2 5 3 3 5 9 11 13 11 10 9 10 10 9 8 9 10 12 12 11 11 14 14 13 8 6 6 5 6 7 7 6 7 7 7 7 8 8 6 5 4 5 5 6 6 7 7 8 9 8 9 8 9 9 9 10 10 9 11 12 12 12 13 13 12 12 11 10 11 11 11 11 12 13
1 1 1 0 1 1 4 4 3 6 2 0 3 3 5 3 4 8 12 10 11 8 7 7 7 8 9 12 12 10 11 12 13 12 13 4 4 5 4 5 7 6 7 6 8 8 6 6 7 8 6 4 4 5 5 6 6 6 7 7 8 8 8 8 9 10 9 8 9 10 13 12 12 12 12 12 11 11 13 12 11 12 12 11 12 11
4 3 2 3 1 1 3 2 8 7 8 1 1 1 1 2 5 2 8 11 2 4 3 4 8 10 12 12 12 13 11 12 12 10 3 3 3 4 6 7 6 6 5 6 5 6 6 6 7 7 5 5 5 5 5 6 5 6 7 7 7 7 7 8 8 8 8 8 11 10 10 11 12 12 12 11 12 12 13 13 13 11 10 12 13 13
2 1 3 3 2 2 2 8 7 7 2 4 6 1 3 2 2 4 3 15 5 4 4 5 10 11 12 11 10 10 11 14 14 7 4 4 7 6 6 5 4 5 5 5 5 5 6 6 6 6 5 6 6 5 5 5 5 6 7 7 7 7 8 8 7 7 9 10 11 10 10 11 11 12 12 11 10 12 13 12 11 11 10 10 11 13
5 6 4 2 1 3 1 1 3 2 8 4 6 5 4 3 3 1 2 11 3 4 3 6 10 10 9 10 10 7 9 11 12 8 3 6 5 4 5 6 6 5 5 5 6 7 7 7 7 6 5 6 8 6 5 6 6 6 7 7 7 6 6 7 7 8 9 10 10 9 9 10 10 11 12 11 11 11 13 12 11 10 10 10 11 13
5 5 5 2 1 1 2 1 5 4 6 2 4 2 3 2 3 2 8 7 5 5 6 5 9 10 11 10 8 11 8 11 15 12 6 8 2 5 5 6 6 5 5 5 5 6 7 6 6 7 7 8 8 6 5 5 6 7 7 6 5 7 8 7 8 10 8 9 9 9 9 9 10 11 10 11 12 11 11 11 10 11 12 11 11 12
3 4 4 2 1 3 5 5 4 7 5 2 4 5 1 2 5 0 7 12 1 5 5 6 10 10 10 9 8 11 9 11 14 15 12 7 9 7 4 4 5 5 6 5 6 4 6 6 6 7 9 7 6 5 5 5 5 5 5 6 7 8 8 6 9 9 9 9 9 10 10 8 9 11 11 9 10 10 11 10 10 12 11 11 11 10
1 0 2 1 1 2 4 3 8 8 8 4 4 2 1 2 5 12 5 0 8 12 8 6 11 10 9 12 9 10 12 12 13 10 10 10 9 8 5 5 5 5 5 5 4 5 6 6 8 8 8 7 7 6 4 5 6 6 6 6 8 8 7 6 6 9 9 10 10 11 9 9 10 9 9 10 10 10 11 10 10 9 12 10 9 11
3 1 4 2 2 1 2 2 7 7 1 4 2 1 2 0 8 4 10 9 4 9 10 10 8 10 9 11 12 12 14 13 12 12 14 11 9 9 8 6 6 6 7 7 6 6 6 6 8 8 8 6 6 5 4 5 6 7 6 8 9 7 7 7 6 9 9 10 10 10 10 10 11 11 9 9 10 10 12 11 11 11 11 10 11 12
4 1 2 3 6 1 1 1 4 8 3 5 3 5 4 7 6 5 4 13 8 8 10 8 8 9 10 11 12 13 12 13 12 10 13 11 9 8 6 6 5 5 6 6 7 7 6 7 7 7 7 6 5 6 5 3 6 7 8 10 7 6 6 7 6 8 9 9 9 10 10 10 11 11 9 9 10 10 11 11 11 9 8 10 8 8
8 4 6 4 3 5 7 9 9 3 2 5 5 6 6 6 4 6 7 9 13 9 5 9 11 10 8 10 11 10 10 11 13 12 13 12 11 9 8 8 7 7 7 8 8 7 5 7 9 8 9 7 7 6 5 4 6 8 10 9 5 6 7 7 7 7 9 9 9 10 9 10 10 11 10 9 8 9 9 11 11 9 10 9 8 7
1 3 0 1 7 7 12 16 16 13 12 8 3 5 5 5 5 5 8 12 6 8 7 9 11 10 9 8 11 10 9 12 13 13 12 11 10 10 7 6 6 6 7 7 7 6 7 6 8 8 9 9 7 7 4 5 5 8 10 7 6 6 7 7 7 8 9 9 9 10 9 11 10 9 10 10 7 7 7 9 8 8 8 8 8 7
2 1 3 3 2 4 9 2 3 8 4 4 7 5 6 7 7 5 6 7 8 8 10 8 8 9 9 9 9 12 12 11 13 13 12 10 9 8 8 8 8 7 8 8 8 6 6 4 7 9 9 11 8 6 5 5 6 8 8 8 7 7 6 6 7 9 9 9 8 9 8 9 8 8 9 8 8 6 6 6 7 7 7 8 9 8
3 2 1 7 4 5 14 10 6 6 7 8 7 8 7 7 6 6 6 5 8 7 7 9 6 8 6 10 8 10 12 12 13 13 11 9 9 8 8 8 9 8 7 7 7 6 5 6 8 9 9 10 9 6 6 7 8 8 8 7 7 6 6 7 7 8 9 9 8 8 8 8 9 10 8 8 8 7 7 6 6 7 7 8 9 10
2 4 5 3 5 11 12 16 15 12 11 13 9 5 7 6 5 5 6 8 8 9 9 8 6 8 8 9 9 10 12 14 12 12 11 10 8 8 7 8 8 8 8 8 7 5 7 6 8 9 9 11 8 7 7 8 8 7 8 8 6 5 6 8 8 8 9 8 7 7 6 7 8 7 7 8 8 7 7 8 8 7 10 10 8 8
3 5 2 2 8 11 9 10 1 9 14 4 5 7 6 5 4 7 7 7 7 9 9 9 8 7 9 10 9 9 12 14 12 8 11 10 9 9 10 8 8 8 9 8 6 7 7 7 8 9 10 10 8 7 8 8 8 7 7 6 6 5 7 7 7 7 8 7 6 7 6 7 7 7 7 7 7 8 11 10 15 13 11 11 16 21
7 8 5 5 5 12 13 9 5 8 12 12 9 5 4 3 4 7 10 10 9 7 7 8 10 10 9 10 8 10 12 12 13 9 10 8 9 9 8 8 9 8 8 7 6 7 7 8 8 9 10 10 7 8 8 9 8 7 8 7 7 5 6 6 6 6 7 7 6 7 7 7 8 7 7 8 7 6 7 11 12 16 19 18 18 20
Wind_Direction
301 73 285 267 262 244 262 210 227 248 171 89 143 220 259 265 282 279 280 267 342 308 258 126 84 34 357 357 341 347 358 40 60 97 102 108 109 106 104 102 99 85 85 83 78 74 72 69 67 68 65 67 65 58 55 56 51 47 44 43 42 32 27 25 18 15 11 9 0 3 1 354 343 339 0 0 3 5 359 356 359 358 358 352 349 350
62 29 292 252 254 255 275 259 118 83 59 219 226 251 285 185 272 245 264 355 306 160 318 89 76 31 4 353 358 356 29 31 36 90 104 108 107 105 109 107 98 101 95 86 73 68 68 65 65 64 61 56 58 51 54 53 51 47 42 44 38 33 27 27 22 11 9 6 6 352 345 347 348 353 4 4 6 3 359 357 358 356 352 350 349 349
11 250 256 261 192 84 61 85 120 166 138 47 220 238 322 275 252 290 331 334 304 128 270 116 88 33 3 13 14 23 32 41 30 52 92 117 113 109 107 109 107 99 94 83 79 72 70 67 62 62 59 59 62 58 54 51 47 40 38 35 35 31 27 21 16 12 6 360 6 357 349 356 349 359 10 6 359 356 354 353 357 354 352 350 349 349
0 302 273 298 158 105 55 63 90 51 65 193 297 318 267 237 5 311 299 7 329 153 249 161 101 137 342 20 44 30 28 47 50 54 52 43 102 110 111 109 107 101 96 86 79 75 68 67 64 61 57 57 59 54 47 41 42 40 36 33 31 30 28 19 18 10 2 6 4 357 358 4 6 0 352 349 350 356 356 360 360 356 354 352 348 346
231 264 174 82 71 156 295 347 64 27 307 299 201 226 276 293 254 185 267 310 285 309 98 105 334 170 35 18 29 22 27 55 35 59 53 51 53 75 81 71 74 97 99 95 86 77 72 67 61 61 61 56 55 50 46 40 39 41 38 31 30 28 25 22 16 8 5 5 8 9 6 8 359 357 358 355 359 1 357 355 357 353 353 350 346 341
310 286 98 37 47 40 33 347 319 179 322 320 249 200 251 268 289 292 314 352 1 315 240 145 10 298 354 63 23 29 20 50 28 60 54 59 66 74 76 78 80 75 76 89 87 83 78 76 71 61 56 56 53 49 47 43 44 47 41 32 29 27 27 20 15 10 11 14 19 11 6 1 360 357 359 2 352 349 352 352 344 347 352 349 345 340
221 41 69 281 78 33 52 322 290 109 14 18 290 175 250 232 213 290 322 24 318 265 337 40 186 275 95 4 63 20 70 65 54 55 56 57 66 70 77 86 88 95 92 84 84 83 80 75 71 61 57 53 54 49 43 47 48 51 44 32 30 28 27 20 14 12 15 20 22 11 5 358 357 353 353 352 345 345 341 345 343 348 346 346 340 339
42 338 6 31 40 24 24 31 4 104 53 300 280 140 101 18 270 267 241 222 241 302 275 159 178 226 300 133 45 69 81 76 65 58 54 60 67 73 76 78 85 87 90 90 84 80 79 73 68 66 60 54 55 46 39 43 46 48 36 27 30 28 24 18 12 17 22 17 9 3 4 1 1 357 343 344 342 343 342 349 344 339 335 338 338 339
73 340 34 5 27 44 29 261 304 118 267 247 288 203 284 261 262 267 201 234 252 26 294 184 213 357 252 22 36 357 106 80 69 68 72 67 72 79 79 77 77 78 82 91 90 85 80 75 70 65 62 62 51 39 34 32 39 45 34 31 33 30 23 15 13 21 20 13 3 0 1 359 354 350 343 342 345 351 350 344 336 336 332 336 341 345
3 109 22 94 62 5 281 291 224 208 319 299 231 133 90 69 61 72 130 118 321 61 283 230 232 198 281 153 174 318 91 139 119 107 85 79 82 90 93 88 88 90 90 85 90 90 85 80 73 69 68 53 44 35 32 31 40 41 32 28 28 27 18 11 10 21 11 5 2 4 358 356 349 351 350 360 354 351 343 336 336 334 336 340 341 340
287 296 191 62 49 278 289 274 175 183 266 288 14 311 296 40 31 35 71 90 60 23 262 287 306 161 299 182 193 150 212 150 132 109 96 85 77 75 80 90 100 101 101 98 94 89 87 81 70 57 52 46 38 31 26 25 29 34 28 23 25 22 16 7 6 14 3 4 3 2 355 352 351 356 3 356 349 344 343 338 334 336 335 338 337 335
16 6 45 352 46 323 104 327 51 246 328 26 10 339 320 353 2 45 348 36 82 278 259 294 250 71 208 321 235 343 316 123 140 136 126 106 80 77 86 93 91 100 107 105 96 92 83 65 51 44 44 38 32 27 23 18 22 27 24 20 19 15 15 5 2 9 1 358 359 357 352 352 350 6 1 354 347 344 341 336 333 332 331 332 334 331
13 12 274 354 277 61 340 8 325 9 10 14 356 14 30 300 15 329 16 336 173 214 182 354 122 344 246 203 325 337 99 94 96 117 117 107 98 94 94 101 98 101 102 92 77 66 55 50 41 37 35 31 27 22 15 8 16 21 22 20 16 10 12 6 1 359 355 354 354 354 348 345 355 5 1 352 347 344 338 333 331 332 330 329 329 329
297 283 22 319 12 7 39 27 333 2 356 0 37 46 46 351 21 298 283 206 301 290 266 157 356 234 117 87 17 11 30 82 101 98 101 89 81 88 104 102 89 77 79 76 67 63 55 48 44 40 34 33 25 17 10 5 14 21 14 18 11 7 10 5 0 356 350 349 348 346 342 340 360 356 359 353 347 340 333 327 327 327 326 322 321 324
28 345 353 19 359 348 45 89 286 251 341 299 198 69 168 85 335 311 317 322 291 270 288 277 3 241 12 314 339 28 76 86 85 89 82 68 65 66 85 89 76 70 69 75 73 67 61 52 45 41 37 30 22 12 10 4 11 19 8 10 4 3 6 2 359 355 351 346 343 342 339 341 3 354 355 352 347 337 330 326 323 322 321 319 321 325
72 247 270 154 250 0 18 356 106 341 79 288 166 100 46 308 130 256 221 270 311 327 332 339 152 306 89 11 26 81 96 74 80 69 56 50 38 37 51 68 69 74 88 96 95 83 71 59 49 43 37 26 15 11 10 7 7 14 0 0 359 2 359 355 354 354 348 342 341 336 339 338 358 356 355 348 342 335 329 324 322 319 318 319 319 318
16 304 319 340 49 63 16 330 344 34 26 310 49 35 274 191 150 286 351 120 290 64 276 157 316 110 155 231 112 126 100 93 86 68 52 39 25 27 25 40 89 86 107 111 91 88 74 61 49 43 35 27 13 8 13 6 6 5 352 352 351 355 355 351 354 351 343 339 338 336 336 334 352 357 356 344 335 327 325 322 321 317 314 314 315 314
87 282 325 45 348 17 89 115 57 25 133 17 33 302 294 112 103 120 276 316 51 125 277 65 260 300 55 317 137 173 132 137 97 73 58 41 25 8 2 1 37 134 114 94 93 89 86 70 55 42 36 32 15 2 11 3 1 356 344 350 347 351 352 349 348 348 345 339 337 333 332 327 341 353 349 339 328 324 319 316 315 313 313 314 314 312
100 356 295 252 233 273 318 82 2 341 43 71 312 291 31 339 352 331 79 340 331 305 286 317 284 268 75 331 67 241 159 121 80 65 50 38 26 6 340 332 319 158 141 122 99 80 75 67 54 42 29 23 9 355 8 349 351 351 346 352 347 348 346 342 343 344 339 332 328 327 324 318 324 344 341 331 319 317 316 314 313 312 310 309 311 312
36 148 296 296 347 321 9 54 20 318 343 9 7 24 0 123 181 3 273 211 126 267 341 295 12 326 25 342 310 263 59 48 48 45 57 41 32 8 326 314 311 344 115 103 106 101 85 63 53 41 22 11 359 336 353 344 350 350 353 351 345 341 338 338 335 339 334 328 326 323 324 318 319 337 333 328 324 318 314 312 311 309 310 310 310 308
308 112 265 283 312 26 35 12 18 339 6 353 31 6 3 358 235 180 280 132 281 300 290 322 323 74 5 2 29 63 57 52 51 18 27 185 359 338 325 303 313 339 115 99 99 71 88 70 30 35 4 2 354 343 355 346 348 347 353 348 344 338 335 332 334 334 330 328 323 325 323 321 318 331 328 324 318 314 311 309 308 307 307 310 306 305
62 13 252 307 352 40 144 168 265 242 46 24 76 29 334 346 351 355 307 53 29 348 307 324 305 87 317 10 55 85 88 117 129 148 357 335 285 274 291 282 249 166 117 119 109 111 96 76 4 349 350 356 4 350 357 348 341 341 346 343 339 334 329 332 330 333 326 323 320 320 319 321 320 322 323 320 319 316 312 313 311 309 306 305 305 307
131 165 81 325 304 287 290 281 246 229 124 89 74 8 19 106 110 330 313 343 348 270 128 242 257 243 212 245 131 164 172 182 203 200 214 301 284 282 299 284 145 143 146 141 186 142 136 89 353 351 357 356 1 354 349 345 338 333 339 339 336 332 327 330 327 325 321 321 322 320 319 316 316 319 319 319 317 316 315 313 312 310 312 311 312 310
65 59 13 267 308 307 350 251 202 148 54 38 28 42 33 4 309 191 216 345 234 317 346 325 253 210 203 158 197 192 204 200 216 210 201 296 286 331 317 296 167 163 161 128 309 149 43 257 347 347 352 354 357 351 347 341 335 330 333 332 327 324 323 326 326 323 321 322 318 317 318 319 318 319 319 318 316 314 314 313 311 313 311 311 310 311
42 307 102 333 357 334 338 343 331 63 66 61 60 346 337 317 328 217 149 192 304 19 341 294 322 330 1 194 217 224 218 227 222 226 208 291 305 325 326 304 170 175 165 37 359 131 354 330 348 357 352 354 353 342 339 332 324 320 319 323 322 318 320 323 323 320 319 319 318 318 319 320 321 320 319 319 316 315 314 313 317 315 316 313 310 310
91 282 73 57 31 3 344 344 342 338 8 20 72 340 357 16 342 25 42 19 12 326 338 342 294 292 266 202 233 228 232 247 246 217 232 243 274 328 322 315 172 179 179 40 347 283 341 347 346 341 342 328 329 323 321 318 313 312 313 315 317 316 319 319 318 318 318 318 318 317 319 320 322 321 322 320 317 317 316 319 314 315 311 311 307 306
124 18 85 144 111 278 225 240 248 26 326 34 306 2 341 347 344 143 134 87 4 300 297 237 220 293 309 288 227 234 253 272 283 283 277 278 292 323 316 299 179 175 145 12 344 326 314 309 305 303 307 302 302 314 316 315 312 310 312 312 312 313 314 315 316 315 317 317 317 318 319 320 321 321 321 321 318 317 316 312 312 310 309 309 305 305
63 49 319 64 204 211 231 255 276 281 185 220 40 340 324 12 354 75 82 158 237 305 285 210 277 294 294 304 278 273 310 305 295 296 304 308 306 312 322 316 171 162 195 254 294 315 289 283 296 293 293 297 302 311 314 312 308 310 313 311 313 313 316 317 319 318 318 319 318 317 319 320 320 319 320 317 314 313 311 310 310 308 306 306 305 303
133 89 288 67 273 263 271 261 274 262 131 180 216 298 5 326 48 71 219 183 154 170 271 292 294 286 291 298 320 312 293 295 296 310 307 294 287 308 317 310 249 209 232 262 276 284 299 295 302 306 293 290 302 311 314 312 309 310 308 308 308 311 313 316 314 315 314 314 313 314 317 319 317 319 318 316 315 312 310 309 306 305 306 304 303 300
85 70 225 179 282 303 300 315 222 192 181 163 343 290 252 175 208 179 232 217 179 247 256 272 283 279 280 288 125 266 278 284 299 302 298 302 302 302 307 303 258 234 240 262 266 280 291 297 302 296 289 287 297 307 310 308 306 306 307 306 307 309 311 316 312 311 310 309 310 310 313 315 317 316 316 314 312 310 309 308 307 306 305 303 300 299
68 320 75 199 353 306 284 313 333 213 160 179 237 238 198 199 251 232 229 259 268 264 254 276 290 291 269 176 257 291 292 308 310 312 311 305 304 303 301 292 254 246 250 257 275 280 287 294 292 284 285 288 296 308 307 305 303 303 303 304 309 311 312 316 310 308 306 306 309 314 315 316 314 314 312 313 309 308 307 308 307 304 302 301 298 296
48 304 65 63 8 306 286 332 330 55 107 155 237 306 0 1 355 298 290 266 308 281 299 308 303 297 232 254 296 284 304 309 310 311 309 306 305 300 300 285 255 254 261 265 269 275 283 296 295 293 287 286 294 301 305 304 304 304 302 308 308 310 310 307 307 309 309 308 313 312 314 313 312 310 309 310 310 310 308 306 304 303 304 302 304 302
83 106 29 15 21 267 265 345 319 37 72 318 281 225 221 237 219 249 252 248 238 255 284 295 285 294 300 313 307 301 309 303 299 304 308 306 298 296 288 267 253 267 271 260 268 276 280 298 297 289 284 277 286 295 301 307 305 303 308 312 310 311 310 311 310 308 306 307 307 310 311 311 310 309 307 306 305 306 306 305 303 301 304 303 302 302
139 96 30 192 37 263 316 321 328 51 16 271 220 154 163 325 306 290 283 267 269 175 230 236 277 304 303 311 306 301 307 304 304 303 300 293 295 292 273 243 259 260 255 251 262 279 290 296 294 295 287 287 292 301 307 307 303 300 306 308 307 307 305 306 304 304 304 302 305 307 308 310 310 308 303 306 308 305 304 306 303 298 299 299 303 303
54 73 107 127 60 283 318 341 27 27 262 238 155 162 192 254 258 239 256 273 264 258 262 280 280 288 296 292 292 294 296 297 301 300 297 287 262 247 241 252 266 267 265 276 287 289 290 290 292 292 282 281 293 303 304 298 297 300 302 308 307 305 306 306 303 303 303 303 303 303 307 309 308 304 306 307 306 306 304 303 303 303 305 305 303 304
333 27 166 353 163 319 35 44 22 254 227 210 251 288 279 288 258 300 292 206 229 227 234 247 271 284 287 292 291 290 298 303 299 288 281 259 168 189 224 260 277 261 274 281 289 286 281 282 286 287 278 282 291 289 293 290 295 299 297 300 298 298 299 299 301 301 299 297 301 305 310 310 307 305 306 307 307 306 306 307 306 306 310 305 302 298
132 114 86 323 132 19 251 186 231 306 327 356 10 178 76 309 305 357 309 306 156 192 176 257 283 285 287 290 299 303 302 302 293 298 135 153 185 197 222 250 248 253 253 273 256 264 262 268 280 278 270 269 276 284 288 288 290 292 295 295 292 295 295 300 298 298 299 298 305 306 307 308 307 306 307 309 309 308 308 309 310 308 308 307 307 308
74 342 222 70 320 123 295 325 330 6 330 272 228 246 190 216 189 237 251 287 128 165 179 251 281 296 300 303 299 299 311 310 300 318 170 220 198 231 226 207 216 216 245 254 245 251 258 264 266 261 255 273 276 277 277 279 291 293 293 293 295 300 301 300 296 298 301 302 305 305 306 307 307 306 308 310 307 307 305 304 301 298 306 302 303 305
29 69 106 127 221 31 25 207 246 226 253 204 208 197 234 221 198 208 159 277 167 186 243 240 287 295 293 296 301 330 325 304 295 314 182 223 229 237 251 249 228 228 231 239 242 258 262 267 267 269 276 276 283 280 272 281 292 291 287 292 295 297 296 295 292 298 302 302 304 303 301 302 303 304 305 306 304 305 303 303 302 298 298 297 299 299
26 3 14 13 10 217 148 147 262 205 252 240 203 231 236 205 131 79 325 289 207 229 227 266 292 300 305 305 308 306 292 283 295 307 320 325 168 211 232 263 254 244 247 240 241 242 258 268 282 284 278 276 272 275 273 283 286 285 287 289 293 293 289 286 293 297 295 298 298 298 297 300 301 300 301 300 302 300 296 298 299 300 303 303 302 301
354 332 48 238 206 217 170 260 310 291 274 196 209 239 238 145 122 298 264 297 185 227 273 299 296 298 298 294 296 288 269 271 285 297 312 317 314 297 247 222 225 224 250 254 252 256 272 273 268 270 269 266 268 263 266 265 275 279 280 285 287 281 279 282 294 296 297 298 298 300 301 298 298 299 300 297 297 296 297 297 296 301 300 300 302 300
344 124 279 67 201 229 206 182 243 250 236 194 243 176 157 92 320 286 293 235 309 307 304 292 297 292 292 288 281 273 283 285 281 290 298 301 296 290 260 235 233 251 242 235 250 266 271 272 272 275 275 268 263 255 249 261 271 280 281 283 276 276 283 287 290 298 298 299 302 303 300 299 299 297 298 301 300 299 297 297 297 297 300 301 298 302
210 100 259 237 245 94 56 317 338 326 275 174 200 95 164 312 267 292 305 301 274 290 298 292 278 282 290 288 284 279 284 286 286 293 299 299 299 295 288 260 261 269 272 273 271 256 267 279 276 272 272 269 258 245 256 256 273 279 281 275 276 283 286 288 287 297 299 300 301 300 300 299 300 303 304 301 300 297 298 302 304 302 301 300 306 306
203 104 280 271 172 261 255 187 210 214 188 189 150 287 222 222 281 294 296 300 298 284 287 282 269 285 292 285 288 287 281 283 287 289 298 293 289 290 271 261 264 265 267 258 251 259 256 267 270 275 273 268 256 249 251 257 271 276 277 275 280 280 281 285 284 295 298 300 299 301 301 302 302 302 301 301 301 300 300 305 306 302 300 306 303 300
200 179 181 226 224 155 218 226 241 215 204 194 195 237 248 257 265 266 250 267 292 287 257 285 289 292 284 281 281 278 283 283 285 293 297 295 293 286 277 267 260 265 268 270 266 260 260 263 277 278 278 272 267 254 256 247 257 273 275 276 282 277 283 286 291 294 297 298 299 298 299 300 299 301 300 298 301 303 307 305 310 307 311 309 304 303
262 180 89 104 255 271 271 252 270 283 277 273 234 226 248 264 255 239 246 280 254 267 283 288 293 288 286 279 285 279 267 287 292 293 292 288 284 281 272 269 265 265 268 269 270 263 260 269 273 278 278 279 269 267 257 253 240 266 270 278 277 277 275 284 289 293 290 293 294 295 299 300 298 294 293 296 296 292 291 298 302 302 304 302 299 295
259 159 132 207 259 19 283 47 233 245 250 255 262 239 234 240 247 224 247 251 270 286 290 279 271 277 276 282 273 278 281 289 289 289 288 289 283 274 265 262 264 263 272 273 268 270 273 273 280 278 279 281 283 275 272 265 260 255 271 276 274 273 281 283 286 286 288 289 294 296 296 295 299 301 302 300 299 289 286 292 294 296 295 295 297 297
327 172 203 233 238 195 257 272 251 254 265 263 247 275 277 259 237 225 234 264 274 276 262 267 270 272 276 277 271 279 283 287 287 288 288 283 280 273 265 261 266 272 265 260 268 262 266 268 270 276 277 277 280 277 273 273 270 270 269 272 270 274 279 281 281 284 288 291 292 295 296 295 293 298 299 300 303 303 301 290 292 293 290 294 295 301
180 123 245 185 218 257 273 274 275 287 259 254 263 246 241 243 243 252 261 268 271 272 270 263 241 255 266 272 283 285 284 284 279 282 283 286 282 275 264 261 260 261 272 274 265 254 260 270 270 269 272 274 278 276 275 270 271 269 270 271 273 271 275 275 277 278 285 288 291 291 293 292 295 294 296 299 297 291 283 293 293 285 285 279 272 287
98 238 208 19 296 279 250 274 81 320 303 294 231 230 249 241 240 267 278 278 269 272 272 270 262 247 257 260 273 277 280 286 284 278 279 277 277 279 277 265 264 264 269 263 261 255 260 259 263 269 269 272 274 274 272 274 273 269 266 268 266 261 262 271 279 283 282 286 287 292 293 297 296 296 296 296 301 303 302 285 290 293 295 300 307 308
182 218 146 218 197 271 276 271 195 229 268 270 277 286 278 261 266 276 279 280 279 261 253 259 275 281 262 259 270 283 278 275 277 277 274 275 275 269 261 262 267 271 269 266 266 267 261 265 268 270 273 273 275 271 272 275 277 276 273 267 260 250 256 265 278 276 282 286 288 289 294 296 296 295 295 296 298 297 298 307 307 303 305 308 310 311